Location: Thunder Bay
(48.3809°N, 89.2477°W)
Time: 10:37:29
(UTC-04:00)

X-37B - Visible Passes

Search period start: 04 August 2021 00:00
Search period end: 14 August 2021 00:00
Orbit: 383 x 392 km, 45.0° (Epoch: 01 July)

Date Brightness Start Highest point End Pass type
(mag) Time Alt. Az. Time Alt. Az. Time Alt. Az.
04 Aug 2.8 04:25:04 15° SE 04:25:04 15° SE 04:26:34 10° ESE visible
04 Aug 1.4 05:57:38 10° WSW 06:00:39 39° S 06:03:40 10° E visible
05 Aug 1.6 05:01:28 25° SSW 05:02:24 31° SSE 05:05:17 10° E visible
06 Aug 2.8 04:05:35 17° ESE 04:05:35 17° ESE 04:06:48 10° ESE visible
06 Aug 1.1 05:37:52 13° WSW 05:40:26 44° S 05:43:31 10° ESE visible
07 Aug 1.1 04:42:01 38° S 04:42:10 39° S 04:45:11 10° E visible
08 Aug 3.2 03:46:13 14° ESE 03:46:13 14° ESE 03:46:48 10° E visible
08 Aug 1.0 05:18:30 22° WSW 05:20:15 45° S 05:23:20 10° ESE visible
09 Aug 1.6 04:22:48 35° SE 04:22:48 35° SE 04:25:02 10° ESE visible
09 Aug 1.4 05:55:23 10° W 05:58:19 34° SSW 06:01:16 10° SE visible
10 Aug 1.0 04:59:30 37° SW 05:00:04 41° S 05:03:06 10° ESE visible
11 Aug 3.0 04:04:05 16° ESE 04:04:05 16° ESE 04:04:51 10° ESE visible
11 Aug 1.7 05:36:24 17° WSW 05:38:04 26° SSW 05:40:48 10° SE visible
12 Aug 2.3 04:41:16 22° SE 04:41:16 22° SE 04:42:46 10° SE visible
13 Aug 2.5 05:18:50 16° S 05:18:50 16° S 05:20:04 10° SSE visible
